| time (UTC) | temp C | wind direction | speed KPH | gust KPH | rain 1hr cm | rain 24hr cm | rain mn cm | humidity % | barometer mb |
| 20260504231506 | 17 | 237 | 0.0 | 3.2 | 0.00 | 0.00 | 0.00 | 48 | 1004.9 |
| 20260504230002 | 18 | 237 | 1.6 | 6.4 | 0.00 | 0.00 | 0.00 | 43 | 1004.7 |
| 20260504224559 | 18 | 237 | 3.2 | 8.0 | 0.00 | 0.00 | 0.00 | 42 | 1004.6 |
| 20260504223110 | 19 | 230 | 1.6 | 12.9 | 0.00 | 0.00 | 0.00 | 41 | 1004.6 |
| 20260504221551 | 19 | 261 | 0.0 | 9.7 | 0.00 | 0.00 | 0.00 | 42 | 1004.7 |
| 20260504220045 | 20 | 240 | 6.4 | 12.9 | 0.00 | 0.00 | 0.00 | 39 | 1004.6 |
| 20260504214541 | 20 | 257 | 3.2 | 12.9 | 0.00 | 0.00 | 0.00 | 39 | 1004.5 |
| 20260504213036 | 20 | 265 | 3.2 | 17.7 | 0.00 | 0.00 | 0.00 | 39 | 1004.6 |
| 20260504211544 | 20 | 260 | 3.2 | 14.5 | 0.00 | 0.00 | 0.00 | 40 | 1004.6 |
| 20260504210028 | 20 | 227 | 3.2 | 17.7 | 0.00 | 0.00 | 0.00 | 39 | 1004.5 |
| 20260504204523 | 20 | 249 | 8.0 | 20.9 | 0.00 | 0.00 | 0.00 | 39 | 1004.5 |
| 20260504203018 | 20 | 321 | 9.7 | 19.3 | 0.00 | 0.00 | 0.00 | 39 | 1004.6 |
| 20260504201514 | 20 | 284 | 11.3 | 24.1 | 0.00 | 0.00 | 0.00 | 40 | 1004.7 |
| 20260504200009 | 18 | 336 | 4.8 | 14.5 | 0.00 | 0.00 | 0.00 | 44 | 1004.9 |
| 20260504194505 | 18 | 283 | 8.0 | 27.4 | 0.00 | 0.00 | 0.00 | 44 | 1004.9 |
| 20260504193110 | 18 | 355 | 9.7 | 37.0 | 0.00 | 0.00 | 0.00 | 43 | 1005.0 |
| 20260504191611 | 18 | 305 | 4.8 | 19.3 | 0.00 | 0.00 | 0.00 | 45 | 1005.1 |
| 20260504190106 | 18 | 270 | 4.8 | 14.5 | 0.00 | 0.00 | 0.00 | 44 | 1005.1 |
| 20260504184552 | 18 | 272 | 4.8 | 14.5 | 0.00 | 0.00 | 0.00 | 46 | 1005.2 |
| 20260504183042 | 17 | 321 | 3.2 | 12.9 | 0.00 | 0.00 | 0.00 | 49 | 1005.3 |
| 20260504181538 | 16 | 257 | 6.4 | 16.1 | 0.00 | 0.00 | 0.00 | 49 | 1005.5 |
| 20260504180034 | 16 | 331 | 8.0 | 22.5 | 0.00 | 0.00 | 0.00 | 46 | 1005.5 |
| 20260504174530 | 17 | 322 | 8.0 | 16.1 | 0.00 | 0.00 | 0.00 | 44 | 1005.5 |
| 20260504173025 | 16 | 267 | 6.4 | 25.7 | 0.00 | 0.00 | 0.00 | 46 | 1005.6 |
| 20260504171523 | 16 | 325 | 9.7 | 24.1 | 0.00 | 0.00 | 0.00 | 43 | 1005.5 |
| 20260504081540 | 0 | 286 | 1.6 | 11.3 | 0.00 | 0.00 | 0.00 | 5 | 1008.0 |
| 20260504044558 | 0 | 309 | 0.0 | 0.0 | 0.00 | 0.00 | 0.00 | 57 | 1007.6 |
| 20260504043101 | 0 | 309 | 0.0 | 0.0 | 0.00 | 0.00 | 0.00 | 58 | 1007.7 |
| 20260504041553 | 1 | 309 | 0.0 | 1.6 | 0.00 | 0.00 | 0.00 | 59 | 1007.7 |
| 20260504040118 | 1 | 309 | 0.0 | 1.6 | 0.00 | 0.00 | 0.00 | 62 | 1007.7 |
| 20260504034547 | 1 | 309 | 0.0 | 1.6 | 0.00 | 0.00 | 0.00 | 64 | 1007.5 |
| 20260504033047 | 1 | 309 | 0.0 | 1.6 | 0.00 | 0.00 | 0.00 | 66 | 1007.5 |
| 20260504031551 | 2 | 309 | 0.0 | 3.2 | 0.00 | 0.00 | 0.00 | 70 | 1007.5 |
| 20260504030033 | 2 | 309 | 0.0 | 0.0 | 0.00 | 0.00 | 0.00 | 72 | 1007.3 |
| 20260504024529 | 2 | 309 | 0.0 | 0.0 | 0.00 | 0.03 | 0.00 | 73 | 1007.4 |
| 20260504023025 | 2 | 309 | 0.0 | 0.0 | 0.00 | 0.03 | 0.00 | 72 | 1007.6 |
| 20260504021519 | 3 | 309 | 0.0 | 0.0 | 0.00 | 0.03 | 0.00 | 72 | 1007.5 |
| 20260504020016 | 3 | 309 | 0.0 | 0.0 | 0.00 | 0.03 | 0.00 | 71 | 1007.5 |
| 20260504014522 | 4 | 309 | 0.0 | 0.0 | 0.00 | 0.08 | 0.00 | 70 | 1007.3 |
| 20260504013006 | 5 | 309 | 0.0 | 3.2 | 0.00 | 0.08 | 0.00 | 68 | 1007.2 |
| 20260504011501 | 5 | 309 | 0.0 | 4.8 | 0.00 | 0.08 | 0.00 | 66 | 1007.1 |
| 20260504010058 | 6 | 309 | 1.6 | 6.4 | 0.00 | 0.08 | 0.00 | 63 | 1007.0 |
| 20260504004554 | 6 | 309 | 0.0 | 8.0 | 0.00 | 0.10 | 0.00 | 60 | 1006.7 |
| 20260504003052 | 7 | 300 | 3.2 | 12.9 | 0.00 | 0.10 | 0.00 | 57 | 1006.5 |
| 20260504001551 | 7 | 300 | 3.2 | 14.5 | 0.00 | 0.10 | 0.00 | 56 | 1006.2 |
| 20260504000040 | 7 | 275 | 0.0 | 16.1 | 0.00 | 0.10 | 0.00 | 55 | 1006.0 |
| 20260503234558 | 8 | 302 | 0.0 | 12.9 | 0.00 | 0.15 | 0.00 | 52 | 1005.7 |
| 20260503233038 | 8 | 325 | 4.8 | 22.5 | 0.00 | 0.15 | 0.00 | 50 | 1005.5 |